DW2609 Weather Reports


time (UTC)temp
F
wind
direction
speed
knots
gust
knots
rain 1hr
in
rain 24hr
in
rain mn
in
humidity
%
barometer
mb
20260906080033 86 340 0.9 2.6 0.00 0.00 0.00 64 1019.5
20260906074526 85 349 0.0 1.7 0.00 0.00 0.00 64 1019.5
20260906073023 83 350 0.0 2.6 0.00 0.00 0.00 64 1019.4
20260906071518 81 350 0.0 3.5 0.00 0.00 0.00 65 1019.3
20260906070014 80 315 0.0 2.6 0.00 0.00 0.00 64 1019.0
20260906064509 78 229 0.0 1.7 0.00 0.00 0.00 65 1018.7
20260906063007 75 229 0.0 0.0 0.00 0.00 0.00 69 1018.9
20260906061601 73 229 0.0 0.0 0.00 0.00 0.00 71 1018.7
20260906060057 72 229 0.0 0.0 0.00 0.00 0.00 73 1018.6
20260906054555 71 229 0.0 0.0 0.00 0.00 0.00 74 1018.8
20260906053051 70 229 0.0 0.0 0.00 0.00 0.00 74 1018.3
20260906051549 70 229 0.0 0.0 0.00 0.00 0.00 73 1018.3
20260906050053 70 229 0.0 0.0 0.00 0.00 0.00 73 1018.3
20260906044545 70 229 0.0 0.0 0.00 0.00 0.00 72 1018.1
20260906043046 70 229 0.0 0.0 0.00 0.00 0.00 73 1018.1
20260906041546 70 229 0.0 0.0 0.00 0.00 0.00 73 1017.8
20260906040040 70 229 0.0 0.0 0.00 0.00 0.00 72 1017.6
20260906034544 71 229 0.0 0.0 0.00 0.00 0.00 72 1017.5
20260906033039 71 229 0.0 0.0 0.00 0.00 0.00 73 1017.3
20260906031547 70 229 0.0 0.0 0.00 0.00 0.00 73 1017.3
20260906030037 70 229 0.0 0.0 0.00 0.00 0.00 74 1017.3
20260906024535 70 229 0.0 0.9 0.00 0.00 0.00 74 1017.3
20260906023034 70 142 0.0 0.0 0.00 0.00 0.00 71 1017.3
20260906021531 70 142 0.0 0.0 0.00 0.00 0.00 70 1016.8
20260906020035 70 142 0.0 0.0 0.00 0.00 0.00 69 1016.8
20260906014530 71 142 0.0 0.0 0.00 0.00 0.00 68 1016.6
20260906013025 71 142 0.0 0.0 0.00 0.00 0.00 66 1016.6
20260906011523 72 142 0.0 0.0 0.00 0.00 0.00 66 1016.5
20260906010021 72 142 0.0 0.0 0.00 0.00 0.00 67 1016.4
20260906004520 72 142 0.0 0.0 0.00 0.00 0.00 66 1016.5
20260906003024 72 142 0.0 0.0 0.00 0.00 0.00 64 1016.4
20260906001516 73 142 0.0 0.0 0.00 0.00 0.00 63 1016.4
20260906000015 73 142 0.0 0.0 0.00 0.00 0.00 62 1016.4
20260905234512 74 142 0.0 0.0 0.00 0.00 0.00 62 1016.4
20260905233011 74 142 0.0 0.0 0.00 0.00 0.00 61 1016.4
20260905231511 74 142 0.0 0.0 0.00 0.00 0.00 62 1016.4
20260905230010 75 142 0.0 0.0 0.00 0.00 0.00 60 1016.3
20260905224506 75 142 0.0 0.0 0.00 0.00 0.00 60 1016.3
20260905223010 75 142 0.0 0.0 0.00 0.00 0.00 59 1016.1
20260905221602 76 142 0.0 0.0 0.00 0.00 0.00 59 1016.1
20260905214555 77 142 0.0 0.0 0.00 0.00 0.00 55 1015.9
20260905213100 77 142 0.0 0.0 0.00 0.00 0.00 55 1015.7
20260905211554 78 142 0.0 0.0 0.00 0.00 0.00 54 1015.7
20260905210107 78 142 0.0 0.0 0.00 0.00 0.00 53 1015.6
20260905204553 79 142 0.0 0.0 0.00 0.00 0.00 52 1015.5
20260905203056 79 142 0.0 0.0 0.00 0.00 0.00 50 1015.7
20260905201557 80 142 0.0 0.0 0.00 0.00 0.00 50 1015.6
20260905200101 81 142 0.0 0.0 0.00 0.00 0.00 49 1015.4
20260905194548 81 142 0.0 0.0 0.00 0.00 0.00 48 1015.4
20260905193047 82 142 0.0 0.0 0.00 0.00 0.00 47 1015.4
20260905191546 83 142 0.0 0.0 0.00 0.00 0.00 47 1015.1
20260905190045 83 142 0.0 3.5 0.00 0.00 0.00 47 1014.9
20260905184543 83 153 1.7 2.6 0.00 0.00 0.00 47 1014.8
20260905183044 83 153 0.0 1.7 0.00 0.00 0.00 46 1014.6
20260905181543 84 153 0.0 1.7 0.00 0.00 0.00 45 1014.5
20260905180045 85 156 0.9 3.5 0.00 0.00 0.00 43 1014.4
20260905174541 86 146 0.0 3.5 0.00 0.00 0.00 42 1014.2
20260905173041 87 146 0.0 6.1 0.00 0.00 0.00 41 1014.0
20260905171556 88 146 0.0 1.7 0.00 0.00 0.00 40 1013.8
20260905170040 89 148 2.6 7.0 0.00 0.00 0.00 41 1013.8
20260905164541 89 132 3.5 8.7 0.00 0.00 0.00 40 1013.8
20260905163039 90 146 1.7 9.6 0.00 0.00 0.00 41 1013.7
20260905161542 91 146 2.6 9.6 0.00 0.00 0.00 42 1013.6
20260905160046 92 139 2.6 5.2 0.00 0.00 0.00 41 1013.5
20260905154550 93 127 1.7 7.0 0.00 0.00 0.00 41 1013.3
20260905153036 94 98 1.7 4.3 0.00 0.00 0.00 38 1013.2
20260905151537 95 116 0.9 4.3 0.00 0.00 0.00 38 1013.1
20260905150035 96 138 0.9 7.0 0.00 0.00 0.00 38 1013.3
20260905144548 97 143 0.9 3.5 0.00 0.00 0.00 37 1013.2
20260905143034 98 124 1.7 4.3 0.00 0.00 0.00 35 1013.2
20260905141532 99 140 1.7 7.0 0.00 0.00 0.00 34 1013.4
20260905140037 101 148 0.9 7.8 0.00 0.00 0.00 34 1013.5
20260905134530 102 143 0.9 6.1 0.00 0.00 0.00 33 1013.7
20260905133029 101 5 0.0 7.8 0.00 0.00 0.00 28 1013.7
20260905131529 101 360 0.9 7.0 0.00 0.00 0.00 27 1013.9
20260905130029 101 11 0.0 7.0 0.00 0.00 0.00 27 1014.0
20260905124537 101 355 0.9 7.0 0.00 0.00 0.00 26 1014.0
20260905123026 103 347 0.0 4.3 0.00 0.00 0.00 26 1014.2
20260905121524 102 5 0.0 4.3 0.00 0.00 0.00 27 1014.1
20260905120027 101 349 1.7 4.3 0.00 0.00 0.00 28 1014.3
20260905114524 102 351 0.9 4.3 0.00 0.00 0.00 28 1014.4
20260905113022 101 350 0.9 4.3 0.00 0.00 0.00 29 1014.6
20260905111522 102 343 0.0 1.7 0.00 0.00 0.00 28 1014.5
20260905110019 101 349 0.0 2.6 0.00 0.00 0.00 29 1014.6
20260905104524 100 348 0.9 6.1 0.00 0.00 0.00 30 1014.5
20260905103013 99 346 0.0 6.1 0.00 0.00 0.00 30 1014.7
20260905101511 99 14 0.9 7.8 0.00 0.00 0.00 30 1014.8
20260905100008 98 340 0.9 6.1 0.00 0.00 0.00 31 1014.9
20260905094503 97 355 0.0 5.2 0.00 0.00 0.00 32 1014.9
20260905093100 96 9 0.0 3.5 0.00 0.00 0.00 32 1014.9
20260905091607 95 336 0.9 3.5 0.00 0.00 0.00 35 1014.8
20260905090055 95 341 0.9 4.3 0.00 0.00 0.00 33 1014.8
20260905084552 95 355 0.0 3.5 0.00 0.00 0.00 35 1014.7
20260905083047 93 302 0.0 1.7 0.00 0.00 0.00 37 1014.5
20260905081553 92 263 0.0 1.7 0.00 0.00 0.00 38 1014.4